Showing default

GLOBALSTAR M038, 25624

Orbit data source: Space-Track

GLOBALSTAR M038, 25624 is a payload satellite owned by Globalstar (US) in LEO that was launched on Tue, 09 Feb 1999 UTC via a SOYUZ-U-PVB launch vehicle from the Tyuratam Missile And Space Complex (TTMTR). Payload-class satellites include a variety of spacecraft equipped with specific instruments for various scientific and technological missions. These include communications satellites like Starlink; space stations such as the ISS; scientific satellites like the Hubble; Earth observation satellites from companies like Planet Labs, Umbra, and HawkEye 360; GPS; miniature CubeSats for education and research; and military/defense satellites.

Loading next visibility...
Identifier
25624, 1999-004D
Orbit
LEO
Last TLE update
12 hours ago
Origin
Manufacturer
SS/Loral
Mission
Non-operational Commercial Communications
Bus & Motor
LS-400, LS-400 AOCS
Mass
450 kg wet, 380 kg dry
Launch date (UTC)
1999-02-09 (26 years ago)
Launch vehicle
SOYUZ-U-PVB
Launch site
Tyuratam Missile And Space Complex (TTMTR)
Object type
Payload
Rocket body
Debris
Shape & HBR
Box + 2 Pan, 12 m
Radar Cross Section
5.587 m², Large (>1 m²)

Expand to show TLE details & history

TLE from 12 hours ago
0 GLOBALSTAR M038
1 25624U 99004D   25181.89118369 -.00000086  00000-0  76394-4 0  9991
2 25624  51.9991  32.1059 0002708  80.1291  21.5136 12.32528678204023
Epoch: 2025-06-30T21:23Z
TLE epoch observation values (Epoch: 2025-06-30T21:23:18.27Z)
Latitude
50.64598°
Longitude
-99.3749°
Altitude
1,542.438 km
Speed
7.102 km/s
True Right ascension
09h 22m 34s
True Declination
50° 29' 38"
Sunlit
Object was in daylight at epoch
Visualization orbit readout
Latitude
-30.33983°
Longitude
-2.32341°
Altitude
1,549.197 km
Speed
7.092 km/s
Apparent Right ascension
13h 18m 32s
Apparent Declination
-45° 38' 40"
Sunlit
Object is in full shadow
Visualization observer readout
Local Sidereal Time
21:20:33
Azimuth
241.968° WSW
Elevation
-46.968°
Doppler factor
1
Orbital elements
Apogee altitude
1,540.965 km
Perigee altitude
1,536.677 km
Semi-major axis
7,916.958 km
Eccentricity
0.00027
Inclination
51.9991°
RAAN
32.1059°
Arg. of periapsis
80.1291°
True anomaly
Unknown
Mean anomaly
21.5136°
Eccentric anomaly
Unknown
Mean motion
3.0811 °/min
Orbital period
116.84 mins
BSTAR
0.000076394
Loading maneuver chart data...
Loading SW <> Apogee altitude chart data...
Loading historical data...
Loading historical data...
Loading historical data...
Loading historical data...
Loading historical data...
Loading historical data...
Loading historical data...
Other satellites on launch #4 in the year 1999 (1999-02-09 UTC)

GLOBALSTAR M038 Visibility forecast

Observer location: undefined°, undefined°

Span
Click to sort rows by Start time (UTC) header in descending order
Start Az.
Max El. time (UTC)
Max El. Az.
Max El.
End time (UTC)
End Az.
11 mins2025-07-01 14:27:14.067Z158.661° S2025-07-01 14:33:14.067Z117.04° SE18.078°2025-07-01 14:38:14.067Z82.114° E
16 mins2025-07-01 16:27:14.067Z216.823° SW2025-07-01 16:34:14.067Z147.842° SSE43.655°2025-07-01 16:43:14.067Z54.979° ENE
16 mins2025-07-01 18:30:14.067Z268.319° W2025-07-01 18:38:14.067Z347.661° N37.312°2025-07-01 18:46:14.067Z52.083° ENE
15 mins2025-07-01 20:35:14.067Z302.253° NW2025-07-01 20:42:14.067Z1.727° NNE32.625°2025-07-01 20:50:14.067Z70.369° E
16 mins2025-07-01 22:39:14.067Z311.008° NW2025-07-01 22:47:14.067Z45.477° ENE42.318°2025-07-01 22:55:14.067Z111.831° ESE
15 mins2025-07-02 00:42:14.067Z295.475° NW2025-07-02 00:49:14.067Z233.026° WSW35.514°2025-07-02 00:57:14.067Z164.161° S
|